Regional Weather Roundup
Issued by NWS

Home | Current Version | Previous Version | Text Only | Print | Product List | Glossary Off
Versions: 1 2 3 4 5 6 7 8 9 10 11 12 13 14 15 16 17 18 19 20 21 22 23 24 25 26 27 28 29 30 31 32 33 34 35 36 37 38 39 40 41 42 43 44 45 46 47 48 49 50

771
ASUS43 KBIS 240610
RWRND

NORTH DAKOTA REGIONAL WEATHER ROUNDUP
NATIONAL WEATHER SERVICE BISMARCK ND
100 AM CDT SUN SEP 24 2017

NOTE: "FAIR" INDICATES FEW OR NO CLOUDS BELOW 12,000 FEET WITH NO
SIGNIFICANT WEATHER AND/OR OBSTRUCTIONS TO VISIBILITY.


NDZ001>003-009>011-017-240700-
NORTHWEST NORTH DAKOTA

CITY           SKY/WX    TMP DP  RH WIND       PRES   REMARKS
WILLISTON      LGT RAIN  46  44  93 CALM      30.16R
6HR MIN TEMP:  45; 6HR MAX TEMP:  49; 6HR PCP:  0.12;

MINOT          LGT RAIN  47  46  97 NW10      30.09S
MINOT AFB      LGT RAIN  46  45  95 N7        30.09R
$$

NDZ018>021-031>035-040>046-240700-
SOUTHWEST NORTH DAKOTA

CITY           SKY/WX    TMP DP  RH WIND       PRES   REMARKS
BISMARCK       LGT RAIN  49  48  97 N10       30.04F FOG
6HR MIN TEMP:  49; 6HR MAX TEMP:  55; 6HR PCP:  0.15;

DICKINSON      CLOUDY    45  44  97 N10       30.06F
GARRISON         N/A     46  46 100 NW7       30.09R
6HR MIN TEMP:  46; 6HR MAX TEMP:  50; 6HR PCP:  0.10;

HETTINGER ARPT CLOUDY    45  43  93 N10       30.05F
$$

NDZ004>008-012>016-024-026-027-054-240700-
NORTHEAST NORTH DAKOTA

CITY           SKY/WX    TMP DP  RH WIND       PRES   REMARKS
GRAND FORKS    LGT RAIN  54  54 100 N8        30.00F
GRND FRKS AFB  LGT RAIN  52  52  99 NE8       30.00F
DEVILS LAKE    LGT RAIN  49  48  97 N8        30.05F
$$

NDZ022-023-025-028>030-036>039-047>053-240700-
SOUTHEAST NORTH DAKOTA

CITY           SKY/WX    TMP DP  RH WIND       PRES   REMARKS
FARGO          RAIN      56  55  97 NE12      29.93F FOG
6HR MIN TEMP:  55; 6HR MAX TEMP:  59; 6HR PCP:  0.26;

JAMESTOWN      LGT RAIN  51  50  96 N9        29.97F FOG
$$





USA.gov is the U.S. government's official web portal to all federal, state and local government web resources and services.